Вернуться в каталог

INTELSAT 33E DEB

АктивенMEO
NORAD 64402·DEBRIS· XX

Запущен Aug 24, 2016 с Guiana Space Centre

Loading…

Ближайшие Пролёты (ближайшие 24 часа)

TLE

СвежийSource: Space-Track

Эпоха: Sep 13, 2026, 09:00 UTC

1 64402U 16053AG  26256.37558757 -.00000278  00000-0  00000-0 0  9997
2 64402   1.7348  75.4046 0131999 105.0349 257.2925  0.98355564  6734

Отслеживайте INTELSAT 33E DEB в реальном времени с AllMySat

Download on the App Store